Weather in Porozovo

Russia / Udmurt Republic     57°16′36″N   53°57′21″E
temp.,
°C
wind,
m/s
gust,
m/s
humid.,
%
clouds,
%
prec.,
mm/h
press.,
hPa
HPBL,
m
30 june, thu
thu3001:00+11nw2271100 0.0 101121
04:00+9nw237494 0.0 101034
07:00+12nw3674100 0.0 1009223
10:00+16nw455687 0.0 1008986
13:00+17nnw455196 0.1 10071858
16:00+12nne8981100 1.6 1009735
19:00+11nne698590 0.8 1009466
22:00+9nne51182100 0.8 1009371
1 july, fri
fri101:00+9nne51092100 0.0 1009297
04:00+9ene7129577 0.8 1011361
07:00+10ene7108997 0.0 1012394
10:00+13ene697981 0.0 1014672
13:00+16ene68706 0.0 1015839
16:00+18ne675954 0.1 10141652
19:00+17nne487280 0.1 1014294
22:00+13nne3770100 0.1 1015121
2 july, sat
sat201:00+10nne3375100 0.0 101537
04:00+9nne33845 0.0 101534
07:00+14nne23742 0.0 1015216
10:00+18ne23600 0.0 1014882
13:00+20ne23523 0.0 10141712
16:00+21e22503 0.0 10131397
19:00+20s016466 0.0 101266
22:00+16nw227096 0.0 101239
3 july, sun
sun301:00+11n33892 0.0 101224
04:00+11n33886 0.0 101237
07:00+15nne4682100 0.0 1011276
10:00+15nne5784100 0.0 1012438
13:00+16n467590 0.0 1011653
16:00+16n4875100 0.3 1011896
19:00+16ne510750 0.0 1011795
22:00+12nne49905 0.1 1011150
4 july, mon
mon401:00+13nne61187100 0.0 1012389
04:00+11nne510946 0.0 1013250
07:00+13ne6108057 0.0 1014439
10:00+16ne676346 0.0 10151125
13:00+19ne465433 0.0 10151857
16:00+20nne465036 0.0 10151966
19:00+20ne016357 0.0 101535
22:00+14w337048 0.0 101530